Погода в Трире

Германия     49°45′38″N   6°39′11″E
темп.,
°C
ветер,
м/с
пор.,
м/с
влажн.,
%
обл.,
%
осадки,
мм/ч
давл.,
гПа
погр.,
м
16 мая, вс
вс1623:00+7юз311963 0.8 1005356
02:00+6ююз3999100 0.9 1006267
05:00+7ююз41197100 0.3 1005526
08:00+7юз5995100 0.9 1005797
11:00+9юз5893100 0.2 1006996
14:00+11юз5888100 1.2 10041096
17:00+12юз468995 1.9 1003916
20:00+10зюз49935 4.9 1002441
17 мая, пн
пн1723:00+8ююз2797100 0.6 1004216
02:00+8юз41098100 2.6 1004813
05:00+7юз51198100 4.7 1005719
08:00+7юз61198100 6.3 10071156
11:00+7юз6119790 0.6 1008830
14:00+10зюз71294100 1.8 10081561
17:00+10зюз6109314 1.7 10091059
20:00+10юз5119577 3.1 1010810
18 мая, вт
вт1823:00+9юз41196100 1.3 1011483
02:00+7юз4109897 1.8 1012437
05:00+7юз41098100 0.0 1012732
08:00+7зюз51097100 0.6 10141042
11:00+8зюз5997100 0.4 10151002
14:00+10зюз689192 1.4 10151132
17:00+10зюз589197 2.1 10161082
20:00+9зюз4993100 4.6 1017507
19 мая, ср
ср1923:00+7зюз2296100 0.6 101968
02:00+5юз249946 0.7 102090
05:00+3ююз239813 0.0 102046
08:00+6юз259790 0.0 1021281
11:00+8юз3692100 0.3 1020641
14:00+10зюз569194 1.6 1020842
17:00+11зюз468233 0.8 1019990
20:00+9зюз3793100 2.4 1019314
20 мая, чт
чт2023:00+7с2596100 1.6 1021194
02:00+4зюз11955 1.6 102210
05:00+3ююз21965 0.0 102314
08:00+7юз23932 0.0 1024175
11:00+12зюз45678 0.1 10241071
14:00+14зюз565857 0.9 10221738
17:00+14зюз565497 0.3 10211585
20:00+10юз3886100 0.7 1021441